Content
SEND FEEDBACK

Daily
Averages
Monthly
Summary
United States of America

BARRINGTON, ILLINOIS


Home > North America > United States > Illinois
Elevation: 810 feet     Latitude: 42 10N     Longitude: 088 09W

WEATHER
 
SELECT A DAY
Number of Records: 196,575;   Date Range: 1/1/95 - 7/29/14
 
SHARE

PRINT THIS DATA

[ ← Previous Day ]
WEATHER ALMANAC - FEBRUARY 12, 2013
[ Next Day → ]
[ °C ]   °F
Weather ElementAverageHighLow
Temperature26.2 °F28.4 °F (5:03 pm)23 °F (7:51 pm)
Dewpoint19.7 °F21 °F (11:51 am)17.6 °F (5:51 am)
Humidity76.9 %88 % (10:51 pm)69 % (5:03 pm)
Barometer30.03 in30.11 in (7:51 am)29.92 in (11:51 pm)
Wind Speed9.2 mph17.3 mph (1:51 am)
Wind Gust21.9 mph (2:51 am)
Weather ElementAverage
Visibility10 mi
Wind DirectionWSW (246 °)

Weather ElementTotal
Precipitation---
Heating Degree Days39.3 (Base 65)
Averaged from 25 records on February 12, 2013
WEATHER CONDITIONS BREAKOUT
WIND DIRECTION BREAKOUT
WEATHER BY HOUR - FEBRUARY 12, 2013
[ °C ]   °F
Local TimeTemperatureDewpointHumidityBarometerVisibilityWind DirectionWind SpeedGust SpeedPrecipitationEventsConditions
12:51 AM28.0 °F19.9 °F72 %30.04 in10.0 miWest (280°)11.5 mph20.7 mphOvercast
1:51 AM28.0 °F19.9 °F72 %30.06 in10.0 miWest (260°)17.3 mphOvercast
2:51 AM27.0 °F19.9 °F75 %30.07 in10.0 miWest (270°)13.8 mph21.9 mphOvercast
3:51 AM26.1 °F19.0 °F75 %30.07 in10.0 miWNW (290°)11.5 mph18.4 mphOvercast
4:51 AM25.0 °F18.0 °F75 %30.08 in10.0 miWNW (300°)13.8 mph20.7 mphOvercast
5:51 AM24.8 °F17.6 °F74 %30.05 in10.0 miWNW (290°)9.2 mphOvercast
6:51 AM25.0 °F19.0 °F78 %30.09 in10.0 miWest (280°)11.5 mphOvercast
7:51 AM25.0 °F18.0 °F75 %30.11 in10.0 miWest (270°)12.7 mphMostly Cloudy
8:51 AM26.1 °F19.0 °F75 %30.09 in10.0 miWest (270°)6.9 mphOvercast
9:51 AM26.1 °F19.0 °F75 %30.10 in10.0 miWSW (250°)12.7 mphOvercast
10:51 AM26.1 °F19.9 °F78 %30.11 in10.0 miWest (260°)15.0 mphOvercast
11:51 AM27.0 °F21.0 °F78 %30.06 in10.0 miWest (270°)10.4 mph19.6 mphOvercast
12:51 PM28.0 °F21.0 °F75 %30.03 in10.0 miWest (280°)9.2 mphOvercast
1:51 PM28.0 °F21.0 °F75 %30.02 in10.0 miWest (270°)11.5 mphOvercast
2:51 PM28.0 °F21.0 °F75 %30.03 in10.0 miWest (260°)10.4 mphOvercast
3:51 PM28.0 °F21.0 °F75 %30.01 in10.0 miWest (260°)9.2 mphOvercast
4:51 PM28.0 °F19.9 °F72 %30.01 in10.0 miWest (260°)9.2 mphMostly Cloudy
5:03 PM28.4 °F19.4 °F69 %29.97 in10.0 miWest (260°)6.9 mphMostly Cloudy
5:51 PM27.0 °F19.9 °F75 %29.99 in10.0 miWest (260°)5.8 mphMostly Cloudy
6:51 PM27.0 °F19.9 °F75 %29.98 in10.0 miSW (220°)3.5 mphScattered Clouds
7:51 PM23.0 °F19.0 °F85 %29.97 in10.0 miSSW (200°)5.8 mphScattered Clouds
8:51 PM24.1 °F19.9 °F84 %29.96 in10.0 miCalmScattered Clouds
9:51 PM23.0 °F19.0 °F85 %29.95 in10.0 miSSW (200°)3.5 mphPartly Cloudy
10:51 PM24.1 °F21.0 °F88 %29.94 in10.0 miSSW (200°)5.8 mphPartly Cloudy
11:51 PM23.0 °F19.9 °F88 %29.92 in10.0 miSouth (190°)3.5 mphClear
Hourly data recorded from KORD, located miles away from Barrington, Illinois







STORIES FROM OUR PARTNERS